This is the latest recevied weather packets stored in our database for station/object NC4M. If no packets are shown the sender has not sent any weather packets the latest 10 day(s).
| Time | Temp. | Humidity | Pressure | Rain* | Wind** | Luminosity | Snow |
|---|---|---|---|---|---|---|---|
| 1787698128 | 29.44° C | 67% | 1016.1 hPa | 0 mm | - | 58 W/m² | - |
| 1787697823 | 29.44° C | 66% | 1016.1 hPa | 0 mm | - | 66 W/m² | - |
| 1787697518 | 30° C | 66% | 1016 hPa | 0 mm | - | 74 W/m² | - |
| 1787697214 | 30° C | 65% | 1016.1 hPa | 0 mm | - | 78 W/m² | - |
| 1787696910 | 30.56° C | 65% | 1016.1 hPa | 0 mm | - | 78 W/m² | - |
| 1787696605 | 30.56° C | 65% | 1015.9 hPa | 0 mm | - | 135 W/m² | - |
| 1787696301 | 31.11° C | 62% | 1016.1 hPa | 0 mm | - | 128 W/m² | - |
| 1787695995 | 31.11° C | 62% | 1016.2 hPa | 0 mm | - | 153 W/m² | - |
| 1787695695 | 31.11° C | 62% | 1016.2 hPa | 0 mm | - | 286 W/m² | - |
| 1787695392 | 30.56° C | 62% | 1016.2 hPa | 0 mm | - | 269 W/m² | - |
| 1787695086 | 31.11° C | 61% | 1016.1 hPa | 0 mm | - | 275 W/m² | - |
| 1787694784 | 31.67° C | 57% | 1016.1 hPa | 0 mm | - | 183 W/m² | - |
| 1787694481 | 31.67° C | 60% | 1016.1 hPa | 0 mm | - | 381 W/m² | - |
| 1787694180 | 31.67° C | 58% | 1016.3 hPa | 0 mm | - | 405 W/m² | - |
| 1787693876 | 32.22° C | 57% | 1016.2 hPa | 0 mm | - | 375 W/m² | - |
| 1787693572 | 32.22° C | 57% | 1016.3 hPa | 0 mm | - | 448 W/m² | - |
| 1787693268 | 32.22° C | 58% | 1016.3 hPa | 0 mm | - | 473 W/m² | - |
| 1787692963 | 32.78° C | 56% | 1016.3 hPa | 0 mm | - | 491 W/m² | - |
| 1787692658 | 32.78° C | 57% | 1016.4 hPa | 0 mm | - | 510 W/m² | - |
| 1787692354 | 32.22° C | 55% | 1016.2 hPa | 0 mm | - | 517 W/m² | - |
| 1787692048 | 32.22° C | 57% | 1016.4 hPa | 0 mm | - | 516 W/m² | - |
| 1787691748 | 31.67° C | 57% | 1016.4 hPa | 0 mm | - | 495 W/m² | - |
| 1787691446 | 31.67° C | 59% | 1016.2 hPa | 0 mm | - | 457 W/m² | - |
| 1787691145 | 31.67° C | 61% | 1016.1 hPa | 0 mm | - | 520 W/m² | - |
| 1787690841 | 31.67° C | 58% | 1015.9 hPa | 0 mm | - | 542 W/m² | - |
* Rain latest hour (hover to see other rain measurements)
** Current wind speed in m/s (hover to see current wind gust speed)